[[{"header":{"parameterUnit":"m.s-1","parameterCategory":1,"la1":30.2991,"la2":30.254,"lo1":-89.0895,"lo2":-89.0444,"dy":0.0017,"dx":0.0017,"nx":28,"ny":28,"refTime":"2025-08-04T21:00:00:Z","depth":0,"parameterNumber":2,"parameterNumberName":"U-component_of_WINDS"},"data":[0,0,0,0,0,0,0,0,0,0,0,0,0,0,0,0,0,0,0,0,0,0,0,0,0,0,0,0,0,0,0,0,0,0,0,0,0,0,0,0,0,0,0,0,0,0,0,0,0,0,0,0,0,0,0,0,0,0,-2.1221,-2.1222,0,-2.1281,-2.1281,-2.1282,-2.1283,-2.1282,-2.1281,-2.128,-2.1338,-2.134,-2.1343,0,0,0,0,0,0,0,0,0,0,0,0,0,-2.1106,-2.1108,-2.1221,-2.1222,-2.1223,-2.1281,-2.1281,-2.1282,-2.1283,-2.1282,-2.1281,-2.128,-2.1337,-2.134,-2.1343,0,0,0,0,0,0,0,0,0,0,0,0,0,-2.1159,-2.1108,-2.1221,-2.123,-2.1232,-2.128,-2.1281,-2.1282,-2.1283,-2.1282,-2.1281,-2.128,-2.1337,-2.134,-2.1343,-2.1386,0,0,-2.1353,-2.1355,0,0,0,0,0,0,0,0,-2.1156,-2.1164,-2.1228,-2.123,-2.1231,-2.1273,-2.1262,-2.1317,-2.1283,-2.1263,-2.128,-2.1279,-2.1317,-2.1322,-2.1336,-2.1389,-2.1391,-2.1354,-2.1356,-2.1357,-2.1358,0,0,0,0,0,0,0,-2.1153,-2.1161,-2.1245,-2.1229,-2.1231,-2.123,-2.1237,-2.1272,-2.1296,-2.1265,-2.1265,-2.1272,-2.1318,-2.1332,-2.1337,-2.1392,-2.1354,-2.1357,-2.1359,-2.136,-2.1482,-2.1483,0,0,0,0,0,0,-2.1148,-2.1158,-2.1243,-2.1247,-2.119,-2.1233,-2.124,-2.1261,-2.1295,-2.13,-2.1273,-2.1272,-2.1327,-2.1333,-2.1339,-2.139,-2.1357,-2.136,-2.1362,-2.1481,-2.1482,-2.1484,0,0,0,0,0,0,-2.1145,-2.1155,-2.1241,-2.1202,-2.1213,-2.1236,-2.1259,-2.1263,-2.1277,-2.1302,-2.1306,-2.1284,-2.1327,-2.1334,-2.1374,-2.1392,-2.1362,-2.1365,-2.1479,-2.1481,-2.1483,-2.1494,0,0,0,0,0,0,-2.1142,-2.1154,-2.1172,-2.1203,-2.1215,-2.1276,-2.1261,-2.1265,-2.1283,-2.1282,-2.1313,-2.1317,-2.1326,-2.1369,-2.1378,-2.1396,-2.1367,-2.1478,-2.148,-2.1482,-2.1492,-2.1496,-2.15,0,0,0,0,0,-2.1138,-2.1172,-2.1172,-2.1183,-2.1238,-2.1277,-2.1284,-2.1295,-2.1285,-2.1302,-2.1317,-2.1316,-2.1389,-2.1373,-2.1383,-2.1403,-2.1477,-2.148,-2.1482,-2.1491,-2.1495,-2.1499,0,0,0,0,0,0,-2.1142,-2.1176,-2.1177,-2.1223,-2.1247,-2.1277,-2.1299,-2.13,-2.1327,-2.1325,-2.1337,-2.1344,-2.1383,-2.1397,-2.1379,-2.1446,-2.1432,-2.1436,-2.1435,-2.144,-2.1443,-2.1438,-2.137,0,0,0,0,0,-2.1148,-2.1178,-2.1206,-2.1244,-2.1256,-2.1275,-2.1293,-2.13,-2.1325,-2.1334,-2.1353,-2.1377,-2.1405,-2.1423,-2.1451,-2.1495,-2.15,-2.1513,-2.1517,-2.152,-2.1523,-2.1546,-2.1551,-2.1493,-2.1493,-2.1493,0,0,-2.1161,-2.1184,-2.1202,-2.1245,-2.1265,-2.1294,-2.1284,-2.1316,-2.1337,-2.1339,-2.1378,-2.1392,-2.1419,-2.1461,-2.148,-2.1474,-2.1541,-2.1523,-2.1525,-2.1527,-2.1549,-2.1555,-2.156,-2.1495,-2.1494,-2.1494,0,0,-2.12,-2.1221,-2.1254,-2.1274,-2.1303,-2.1316,-2.1324,-2.1354,-2.1363,-2.1403,-2.1404,-2.1429,-2.1479,-2.1497,-2.1513,-2.1558,-2.1557,-2.1567,-2.1585,-2.1607,-2.1612,-2.1616,-2.1631,-2.1636,-2.1571,-2.1571,-2.1571,0,-2.1212,-2.1258,-2.1271,-2.1303,-2.1321,-2.1325,-2.1357,-2.1375,-2.1412,-2.1424,-2.1417,-2.1478,-2.1496,-2.1542,-2.1553,-2.1566,-2.1574,-2.1563,-2.1611,-2.1615,-2.1619,-2.1633,-2.1638,-2.1572,-2.1572,-2.1572,-2.1571,0,-2.1271,-2.1302,-2.1325,-2.1361,-2.1382,-2.1414,-2.1431,-2.145,-2.1455,-2.1468,-2.1507,-2.1529,-2.1561,-2.1572,-2.1577,-2.1618,-2.1613,-2.1608,-2.1594,-2.1625,-2.1638,-2.1644,-2.1573,-2.1573,-2.1572,-2.1572,0,0,-2.1313,-2.1356,-2.1364,-2.138,-2.1412,-2.1436,-2.1468,-2.15,-2.1515,-2.1541,-2.1566,-2.1608,-2.1603,-2.1621,-2.1628,-2.1648,-2.168,-2.164,-2.1641,-2.1645,-2.1724,-2.1727,-2.1733,-2.168,-2.1681,-2.1682,-2.1722,0,-2.1354,-2.1412,-2.1424,-2.1472,-2.1501,-2.1504,-2.1532,-2.1554,-2.1567,-2.1592,-2.1606,-2.1634,-2.1627,-2.1637,-2.1657,-2.1672,-2.1696,-2.1669,-2.1702,-2.1703,-2.1694,-2.174,-2.1743,-2.1779,-2.1727,-2.1728,-2.1729,0,-2.141,-2.1437,-2.1489,-2.1517,-2.1529,-2.1553,-2.1583,-2.1607,-2.1632,-2.164,-2.166,-2.1665,-2.1696,-2.1682,-2.1724,-2.1706,-2.1721,-2.173,-2.1731,-2.1734,-2.1717,-2.1742,-2.1792,-2.1796,-2.1737,-2.1737,-2.1736,0,-2.1434,-2.1483,-2.152,-2.1534,-2.1568,-2.1584,-2.1599,-2.1623,-2.1641,-2.1666,-2.1678,-2.1706,-2.1722,-2.1743,-2.1755,-2.1743,-2.1796,-2.1783,-2.1802,-2.1802,-2.1812,-2.1811,-2.1862,-2.1824,-2.1823,-2.1823,-2.1823,0,-2.1478,-2.1509,-2.1531,-2.1554,-2.1588,-2.1601,-2.1635,-2.1649,-2.167,-2.1695,-2.17,-2.1723,-2.1737,-2.1762,-2.1771,-2.1804,-2.1811,-2.1818,-2.1819,-2.1816,-2.1815,-2.1825,-2.1822,-2.1825,-2.1825,-2.1824,-2.1824,0,-2.151,-2.1526,-2.1566,-2.1595,-2.1603,-2.1627,-2.1651,-2.1673,-2.1686,-2.1716,-2.1724,-2.1744,-2.1773,-2.1787,-2.1823,-2.1829,-2.1866,-2.1867,-2.1858,-2.1858,-2.1876,-2.1874,-2.1935,-2.1942,-2.19,-2.19,-2.19,0,-2.1536,-2.156,-2.1591,-2.1608,-2.1624,-2.1651,-2.1669,-2.1683,-2.1702,-2.1731,-2.1749,-2.1778,-2.1802,-2.1848,-2.1865,-2.1892,-2.1893,-2.1912,-2.1897,-2.1892,-2.1891,-2.1889,-2.189,-2.1914,-2.1915,-2.1915,-2.1915,0,-2.158,-2.1587,-2.1613,-2.1642,-2.1664,-2.1687,-2.171,-2.1724,-2.1741,-2.1761,-2.1791,-2.181,-2.1846,-2.1875,-2.1903,-2.1917,-2.1918,-2.192,-2.1926,-2.1922,-2.1915,-2.1917,-2.1864,-2.1918,-2.1918,-2.1918,-2.1918,-2.1918,-2.1609,-2.163,-2.1655,-2.1684,-2.1703,-2.1724,-2.1745,-2.1761,-2.1786,-2.1817,-2.1824,-2.1855,-2.1878,-2.1916,-2.1931,-2.1955,-2.195,-2.1959,-2.1961,-2.1962,-2.1962,-2.1913,-2.196,-2.196,-2.196,-2.196,-2.196,0,-2.1652,-2.1668,-2.1695,-2.1727,-2.1749,-2.175,-2.1775,-2.1793,-2.1821,-2.1843,-2.1867,-2.19,-2.1928,-2.1947,-2.1974,-2.1989,-2.1991,-2.1996,-2.1994,-2.1997,-2.1965,-2.1957,-2.1994,-2.1994,-2.1994,-2.1994,-2.1994,-2.1994,-2.1677,-2.1712,-2.1722,-2.1765,-2.1781,-2.1812,-2.1827,-2.1846,-2.1863,-2.19,-2.1923,-2.1936,-2.1956,-2.1985,-2.201,-2.2015,-2.2024,-2.2029,-2.2033,-2.2003,-2.1999,-2.1996,-2.1988,-2.2031,-2.2031,-2.2063,-2.2063,-2.2063]},{"header":{"parameterUnit":"m.s-1","parameterCategory":1,"la1":30.2991,"la2":30.254,"lo1":-89.0895,"lo2":-89.0444,"dy":0.0017,"dx":0.0017,"nx":28,"ny":28,"refTime":"2025-08-04T21:00:00:Z","depth":0,"parameterNumber":3,"parameterNumberName":"V-component_of_WINDS"},"data":[0,0,0,0,0,0,0,0,0,0,0,0,0,0,0,0,0,0,0,0,0,0,0,0,0,0,0,0,0,0,0,0,0,0,0,0,0,0,0,0,0,0,0,0,0,0,0,0,0,0,0,0,0,0,0,0,0,0,-0.8679,-0.868,0,-0.8754,-0.8755,-0.8756,-0.8818,-0.8819,-0.882,-0.882,-0.8897,-0.8898,-0.89,0,0,0,0,0,0,0,0,0,0,0,0,0,-0.8589,-0.8591,-0.8679,-0.868,-0.8681,-0.8754,-0.8755,-0.8756,-0.8818,-0.8819,-0.882,-0.8821,-0.8896,-0.8898,-0.89,0,0,0,0,0,0,0,0,0,0,0,0,0,-0.8643,-0.8591,-0.8679,-0.8721,-0.8725,-0.8754,-0.8755,-0.8756,-0.8818,-0.8819,-0.882,-0.8821,-0.8896,-0.8898,-0.89,-0.8893,0,0,-0.8906,-0.8907,0,0,0,0,0,0,0,0,-0.864,-0.8646,-0.8714,-0.8718,-0.8723,-0.8778,-0.8752,-0.8802,-0.8818,-0.8783,-0.882,-0.8822,-0.8856,-0.8862,-0.8874,-0.8896,-0.89,-0.8907,-0.8908,-0.8909,-0.8909,0,0,0,0,0,0,0,-0.8636,-0.8643,-0.8709,-0.8715,-0.872,-0.8736,-0.8744,-0.8761,-0.8813,-0.8786,-0.8791,-0.8799,-0.8859,-0.8871,-0.8876,-0.8901,-0.8907,-0.8908,-0.891,-0.8911,-0.892,-0.8919,0,0,0,0,0,0,-0.8626,-0.864,-0.8707,-0.8711,-0.8683,-0.8737,-0.8746,-0.8759,-0.8813,-0.8822,-0.8798,-0.8801,-0.8867,-0.8873,-0.8879,-0.8873,-0.8909,-0.8911,-0.8912,-0.8921,-0.892,-0.8919,0,0,0,0,0,0,-0.8624,-0.8631,-0.8704,-0.8677,-0.8687,-0.8737,-0.8751,-0.876,-0.8773,-0.8822,-0.8832,-0.8801,-0.8868,-0.8876,-0.8889,-0.8877,-0.8912,-0.8914,-0.8923,-0.8921,-0.892,-0.8862,0,0,0,0,0,0,-0.8621,-0.863,-0.8628,-0.8676,-0.8688,-0.8712,-0.8751,-0.8761,-0.8776,-0.8782,-0.8827,-0.8836,-0.887,-0.8885,-0.8891,-0.888,-0.8915,-0.8924,-0.8922,-0.892,-0.8865,-0.8858,-0.8853,0,0,0,0,0,-0.8617,-0.8609,-0.8627,-0.8635,-0.8687,-0.8711,-0.8718,-0.8757,-0.8775,-0.8773,-0.8805,-0.8835,-0.8877,-0.8886,-0.8893,-0.8883,-0.8925,-0.8922,-0.892,-0.8868,-0.886,-0.8853,0,0,0,0,0,0,-0.8558,-0.8616,-0.8637,-0.8644,-0.8672,-0.8722,-0.872,-0.8748,-0.8771,-0.8775,-0.8823,-0.8833,-0.884,-0.8863,-0.8872,-0.8878,-0.8905,-0.8904,-0.8862,-0.8855,-0.8849,-0.8843,-0.8917,0,0,0,0,0,-0.8545,-0.8561,-0.8611,-0.8612,-0.8625,-0.867,-0.8682,-0.871,-0.8741,-0.8753,-0.8786,-0.8814,-0.8834,-0.8846,-0.8868,-0.8869,-0.8879,-0.8865,-0.8859,-0.8854,-0.8852,-0.8853,-0.8847,-0.8912,-0.8912,-0.8912,0,0,-0.852,-0.8554,-0.856,-0.8601,-0.8626,-0.864,-0.868,-0.8693,-0.8704,-0.8755,-0.8769,-0.8794,-0.8829,-0.8835,-0.884,-0.8855,-0.8837,-0.8851,-0.8847,-0.8848,-0.885,-0.8844,-0.8839,-0.891,-0.891,-0.8911,0,0,-0.8481,-0.8508,-0.8512,-0.8536,-0.8573,-0.8603,-0.8604,-0.8649,-0.8668,-0.8682,-0.8721,-0.8734,-0.8768,-0.8791,-0.8807,-0.8776,-0.8804,-0.8782,-0.875,-0.875,-0.8745,-0.8741,-0.8728,-0.8723,-0.878,-0.878,-0.878,0,-0.8444,-0.8467,-0.851,-0.8521,-0.8537,-0.8584,-0.8588,-0.8609,-0.8651,-0.8661,-0.8677,-0.872,-0.8747,-0.8759,-0.8751,-0.8763,-0.8765,-0.8776,-0.8743,-0.8739,-0.8735,-0.8724,-0.8719,-0.8777,-0.8777,-0.8778,-0.8778,0,-0.842,-0.8435,-0.8434,-0.8473,-0.8489,-0.8496,-0.8539,-0.8551,-0.8577,-0.8605,-0.8619,-0.8653,-0.8681,-0.8687,-0.8713,-0.8702,-0.871,-0.8734,-0.8761,-0.8725,-0.8715,-0.8711,-0.8773,-0.8774,-0.8775,-0.8775,0,0,-0.8344,-0.8407,-0.8405,-0.8423,-0.8468,-0.8481,-0.849,-0.8517,-0.8525,-0.8553,-0.8561,-0.8588,-0.861,-0.8628,-0.8658,-0.8658,-0.863,-0.8682,-0.8684,-0.867,-0.8618,-0.8599,-0.8593,-0.8649,-0.8648,-0.8648,-0.8615,0,-0.8311,-0.833,-0.8368,-0.8375,-0.8389,-0.8434,-0.8442,-0.8469,-0.8496,-0.8512,-0.8541,-0.8559,-0.8588,-0.8599,-0.8601,-0.8632,-0.862,-0.8636,-0.8656,-0.8656,-0.8644,-0.8588,-0.8568,-0.8535,-0.8611,-0.8611,-0.861,0,-0.8274,-0.8299,-0.8306,-0.8349,-0.8357,-0.8363,-0.8391,-0.8406,-0.8438,-0.8457,-0.8477,-0.8509,-0.8521,-0.8547,-0.8563,-0.8573,-0.8584,-0.86,-0.86,-0.8602,-0.863,-0.8587,-0.8526,-0.852,-0.8605,-0.8605,-0.8606,0,-0.8216,-0.8251,-0.826,-0.8274,-0.8325,-0.8328,-0.8349,-0.8383,-0.8397,-0.8421,-0.8431,-0.8456,-0.847,-0.8489,-0.8527,-0.8543,-0.8538,-0.8568,-0.8553,-0.8552,-0.8549,-0.8548,-0.8486,-0.8558,-0.8558,-0.8558,-0.8558,0,-0.8174,-0.8176,-0.8235,-0.824,-0.8244,-0.8288,-0.8291,-0.8316,-0.8345,-0.8356,-0.8397,-0.8406,-0.8456,-0.8471,-0.8501,-0.8508,-0.8515,-0.853,-0.8537,-0.8525,-0.8523,-0.8532,-0.8534,-0.8557,-0.8557,-0.8558,-0.8558,0,-0.8109,-0.8149,-0.8161,-0.8208,-0.822,-0.822,-0.826,-0.8267,-0.8296,-0.8309,-0.8314,-0.836,-0.8379,-0.8419,-0.845,-0.847,-0.847,-0.8485,-0.8458,-0.8463,-0.8445,-0.8446,-0.8386,-0.838,-0.8456,-0.8456,-0.8455,0,-0.8079,-0.8082,-0.8129,-0.8139,-0.8158,-0.8174,-0.8188,-0.8232,-0.8245,-0.8282,-0.8284,-0.8307,-0.8327,-0.8355,-0.8391,-0.8414,-0.8429,-0.8406,-0.8432,-0.842,-0.8426,-0.8425,-0.8425,-0.84,-0.8399,-0.8398,-0.8397,0,-0.802,-0.8039,-0.8058,-0.8084,-0.81,-0.8122,-0.8146,-0.8152,-0.8202,-0.8214,-0.8234,-0.825,-0.8281,-0.8302,-0.8331,-0.8352,-0.8382,-0.8389,-0.8386,-0.8373,-0.8357,-0.8364,-0.8441,-0.839,-0.839,-0.8391,-0.8391,-0.8392,-0.7971,-0.7975,-0.8008,-0.8028,-0.8051,-0.8073,-0.8081,-0.8111,-0.8128,-0.8157,-0.8182,-0.8199,-0.8231,-0.8272,-0.8292,-0.8306,-0.8321,-0.8318,-0.8317,-0.8315,-0.8309,-0.8356,-0.8312,-0.8312,-0.8312,-0.8313,-0.8313,0,-0.7913,-0.7936,-0.7954,-0.7987,-0.8002,-0.803,-0.8058,-0.8068,-0.8083,-0.8111,-0.813,-0.8152,-0.8173,-0.821,-0.8234,-0.8238,-0.8252,-0.8243,-0.8242,-0.8246,-0.8295,-0.8294,-0.8231,-0.8231,-0.8231,-0.8231,-0.8231,-0.8231,-0.7884,-0.7892,-0.7915,-0.7935,-0.7959,-0.7976,-0.799,-0.801,-0.8032,-0.8055,-0.8072,-0.8097,-0.8128,-0.8154,-0.8174,-0.8185,-0.8191,-0.8176,-0.8191,-0.8235,-0.8243,-0.825,-0.8249,-0.8178,-0.8178,-0.8141,-0.814,-0.814]}]]